Powrót do katalogu

STARLINK-31855

AktywnyŁącznośćVLEO
NORAD 59838·PAYLOAD·🇺🇸 United States

Wystrzelony May 23, 2024 z Cape Canaveral Space Force Station

Loading…

Następne Przeloty (najbliższe 24 godziny)

TLE

ŚwieżeSource: CelesTrak SupGP

Epoka: Sep 14, 2026, 14:49 UTC

1 59838C 24097D   26257.61784722  .00034060  00000+0  12336-2 0  2570
2 59838  43.0025 287.1210 0001552 273.3240 101.0915 15.27563515    12

Śledź STARLINK-31855 w czasie rzeczywistym z AllMySat

Download on the App Store